Simultaneous Nadir Overpasses (SNOs) Predictions

Prediction of SNOs between NOAA-19 and NPP Satellite Orbit:

Table of predicted SNOs for the next 14.0 days since TLE Epoch: 8/26/2016
Index Date (NOAA-19) Time (NOAA-19) Lat,Lon (NOAA-19) SZA (NOAA-19 ) Date (NPP) Time (NPP) Lat,Lon (NPP) SZA (NPP ) Distance(km) Time Diff (sec)
1 09/08/2016 16:19:35 -80.97, 62.58 100.90 09/08/2016 16:20:43 -80.97, 62.45 100.92 2.39 68
2 09/08/2016 17:10:31 80.97,-130.38 79.15 09/08/2016 17:11:28 80.97,-130.26 79.10 1.99 57
3 09/08/2016 18:01:37 -80.97, 37.06 100.87 09/08/2016 18:02:13 -80.97, 37.02 100.89 0.68 36
4 09/08/2016 18:52:32 80.97,-155.52 79.13 09/08/2016 18:52:58 80.97,-155.69 79.14 2.93 26
5 09/08/2016 19:43:39 -80.97, 11.53 100.84 09/08/2016 19:43:43 -80.97, 11.59 100.85 1.02 4
6 09/08/2016
